Find Kosmos-1989

NORAD ID: 19751 Int'l Des: 1989-001 Owner: NPOPM Country: SU operational
MEOCIRCULAR

Current View

Loading 3D Globe...

About Kosmos-1989

Kosmos-1989 (NORAD 19751) is a satellite launched Jan 10, 1989 by NPOPM of SU. It operates in MEO, CIRCULAR orbit with a mass of 1230.00 kg.

Upcoming Passes

Passes for default location (London). Set your location on the main map for personalized predictions.

Altitude History

Loading altitude history...

Two-Line Element Set

1 19751U 89001C 26194.26661692 -.00000012 00000-0 00000-0 0 9995
2 19751 64.9606 71.3039 0023317 217.5002 319.7229 2.13155942291920
Epoch: Jul 13, 2026 • Age: 24 hours

Current Status

Altitude 19076.1 km
Apogee / Perigee N/A
Velocity 3.96 km/s
Sub-Earth Point -31.51°S, 115.82°W
Launch Date Jan 10, 1989
Age 37.5 years
Type other

Technical Details

Classification Payload
Mass 1230.00 kg
Dry Mass 1230.00 kg
Total Mass 1230.00 kg
Length 1.30 m
Diameter 1.30 m
Span 1.30 m
Shape Sphere
Manufacturer OAZ
Bus Type Etalon
Phase Status In Orbit
Owner/State NPOPM/SU

Most Searched